Theta_e
301 292 289 288 293 296 298 298 297 297 297 296 295 294 292 292 293 296 297 300 295 294 292 293 292 292 293 295 297 299 299 298 298 298 298 298 297 297 296 296 295 295 295 297 297 297 297 297 297 297 297 297 297 298 298 299 300 300 301 301 301 304 305 305 307 309 308 307 308 308 309 309 310 309 310 310 310 311 310 309 309 309 309 310 310 310
299 292 292 296 297 298 299 300 299 297 296 295 294 292 292 293 291 296 296 299 296 293 291 293 292 292 294 296 297 299 298 297 298 297 297 296 296 296 295 294 294 295 296 296 295 296 295 295 296 296 295 296 295 296 297 297 298 299 300 300 301 303 304 304 304 305 307 308 308 308 308 308 308 307 307 307 308 309 309 308 307 307 306 307 307 307
292 290 295 299 300 300 300 299 299 296 295 295 292 291 290 291 294 297 297 298 295 293 289 292 290 292 294 296 297 298 298 298 298 297 296 295 295 295 295 294 294 294 293 293 294 294 294 294 294 294 295 295 295 295 295 296 297 297 298 299 300 301 301 302 302 303 304 307 308 307 306 306 305 307 307 306 306 306 306 305 304 305 305 304 304 304
289 294 297 300 300 298 298 298 297 296 295 292 291 288 287 292 291 288 294 293 294 292 289 291 290 291 295 296 297 298 299 298 298 298 297 296 294 294 294 294 293 292 292 292 292 292 293 293 293 293 293 294 294 294 294 295 295 296 296 298 299 299 300 300 301 301 302 306 306 305 305 305 303 301 303 304 303 303 303 302 303 303 303 303 302 303
294 299 302 300 299 298 296 297 295 293 291 294 293 291 291 292 293 292 291 294 294 294 294 292 289 289 292 292 294 298 299 297 297 296 296 296 296 295 295 294 294 292 291 291 291 291 292 291 291 292 293 293 293 294 294 294 294 295 295 296 297 298 298 299 300 301 301 302 302 303 303 302 302 302 301 300 300 300 301 300 301 302 303 303 302 301
296 300 301 298 298 297 296 293 295 294 290 291 294 295 294 294 293 293 293 291 288 286 293 291 282 284 291 293 295 298 296 294 294 294 294 294 294 293 292 292 293 293 292 291 291 291 291 291 291 291 292 292 292 293 294 294 295 294 294 295 296 296 297 298 299 300 300 300 300 300 299 298 298 297 298 297 298 299 299 299 300 301 301 302 301 301
297 298 300 298 296 296 295 293 295 296 290 289 290 294 294 293 293 292 291 290 282 281 289 291 283 281 290 291 294 296 296 292 293 293 293 293 293 292 292 292 291 291 291 291 291 291 290 290 290 291 291 291 292 292 293 294 294 294 294 294 295 295 295 297 298 299 299 298 299 299 299 298 298 297 298 299 299 299 299 299 299 299 300 300 300 299
298 297 295 296 296 294 293 291 295 295 291 287 294 295 295 292 292 292 292 289 285 290 292 291 288 281 283 289 294 296 296 292 291 291 292 292 292 291 291 291 290 290 290 290 290 290 290 290 290 290 290 291 291 292 292 293 294 294 294 294 294 294 294 295 296 297 298 297 297 297 297 297 297 297 297 298 298 298 297 297 298 298 298 298 299 298
295 294 294 294 293 291 291 295 299 297 293 291 294 294 292 291 292 291 289 286 286 285 281 286 290 282 281 288 295 296 293 290 289 290 291 291 291 291 291 291 290 290 290 290 289 289 289 289 290 290 290 291 291 292 291 292 292 293 293 294 294 294 294 294 294 295 296 296 296 296 296 295 296 296 297 297 298 297 296 297 296 297 297 296 297 297
296 295 297 297 293 290 295 292 295 297 292 295 295 294 294 293 293 291 285 285 284 282 280 283 289 282 283 290 291 293 293 289 288 290 291 291 291 290 290 290 290 290 289 289 289 289 289 289 290 290 290 290 291 291 292 291 291 292 292 292 293 293 293 294 294 294 294 294 295 294 294 294 294 295 296 296 296 296 296 295 296 296 296 295 295 295
293 295 296 294 294 296 291 292 294 295 294 296 296 293 291 291 288 288 286 285 283 278 281 287 289 286 279 287 289 289 291 289 289 289 290 290 290 290 290 290 290 289 289 288 289 289 289 289 289 289 289 289 290 290 290 290 290 290 291 291 291 291 293 293 293 293 293 293 293 293 293 293 293 293 294 293 294 294 294 295 295 294 295 295 294 294
292 294 293 294 297 294 294 292 292 294 296 295 290 288 287 286 286 284 283 283 277 278 283 288 289 289 278 281 289 290 292 292 291 289 289 288 288 289 289 289 289 288 288 288 288 288 289 288 288 288 288 288 289 289 289 289 290 289 289 289 289 290 291 291 292 292 292 292 292 292 292 292 292 292 293 292 292 293 292 293 293 294 294 294 294 293
288 290 294 296 296 294 292 290 291 293 292 290 288 286 282 281 282 278 280 275 277 277 283 286 289 284 284 288 292 292 291 292 292 291 290 289 288 288 288 288 288 287 287 287 286 287 288 287 287 287 288 288 288 288 289 289 289 289 288 288 288 288 289 290 290 290 290 290 290 291 291 291 291 291 291 291 291 292 292 292 292 292 292 292 293 292
288 291 293 293 294 294 294 286 285 284 287 287 285 283 281 277 276 274 277 280 280 283 282 285 287 281 286 289 292 290 289 290 290 290 289 288 287 287 287 287 287 287 286 286 286 286 286 287 287 287 287 288 288 288 288 288 288 288 288 287 287 287 288 289 289 289 290 289 289 289 290 290 290 290 290 290 290 291 291 292 292 292 292 291 292 292
281 283 290 292 288 295 293 292 292 291 287 287 290 287 282 281 278 272 277 274 276 279 284 286 281 279 278 285 287 289 289 289 288 288 288 288 287 287 286 286 286 285 285 285 285 286 286 287 287 287 287 287 287 287 287 287 288 287 287 287 286 286 287 287 288 288 288 289 289 289 289 289 289 289 289 289 290 290 290 290 291 291 291 291 291 292
287 286 293 296 293 293 292 296 295 293 289 291 291 292 285 282 287 281 282 280 280 280 280 281 280 283 287 289 289 289 289 288 288 287 287 286 286 286 285 285 285 285 285 285 285 285 285 286 286 286 286 286 286 286 286 287 287 286 286 285 285 285 286 286 286 287 287 288 288 287 287 287 287 288 288 288 289 289 289 289 289 289 290 290 291 291
287 283 291 295 291 291 292 294 294 295 281 287 287 282 286 291 290 283 283 285 282 281 279 284 284 288 290 288 288 287 286 286 286 286 286 285 285 285 284 284 284 285 284 284 284 284 284 284 285 286 285 285 286 286 286 286 287 286 285 285 284 284 284 285 285 286 286 287 286 286 286 286 286 286 285 286 286 287 288 288 288 288 289 289 289 290
285 288 294 293 292 292 293 293 293 295 295 287 281 286 292 294 292 285 278 281 279 277 279 284 280 282 282 279 286 286 284 285 285 285 285 285 285 284 284 283 284 284 284 284 284 284 284 284 284 285 285 285 285 285 285 286 286 285 285 283 283 283 282 283 284 284 284 283 284 284 284 285 285 284 284 285 285 285 285 286 287 286 286 287 288 288
292 282 290 294 294 293 293 294 292 294 296 289 288 294 285 281 281 285 283 276 277 276 278 281 282 282 283 284 285 284 283 284 284 285 284 284 283 283 283 283 283 284 284 284 284 284 284 283 284 284 285 285 285 286 286 286 285 285 284 283 283 282 282 281 282 281 282 281 283 285 283 282 283 283 283 283 283 283 283 283 284 284 285 285 286 286
289 282 285 294 292 293 293 290 282 286 291 294 294 288 293 286 284 282 284 283 282 277 277 277 281 278 287 285 287 287 285 285 284 284 283 283 284 283 283 283 283 283 284 284 284 284 284 284 284 284 284 285 286 286 286 286 285 284 285 283 282 281 280 280 281 281 281 281 281 282 280 281 281 281 281 282 282 282 282 283 283 283 284 285 285 285
285 291 280 288 292 292 282 287 283 287 282 283 284 282 286 284 287 285 283 281 279 276 276 275 275 280 285 287 286 286 286 285 285 283 283 283 283 283 283 283 283 283 283 283 283 284 284 284 284 284 285 285 285 285 286 287 287 286 286 284 283 282 281 280 281 281 281 281 280 280 280 281 281 281 281 281 281 282 283 283 284 284 285 285 285 285
285 286 282 285 284 282 285 291 291 291 291 287 285 282 286 282 281 278 277 285 281 280 277 277 275 281 287 288 288 286 286 286 285 284 283 283 283 283 283 283 283 284 283 283 283 283 284 284 285 285 285 286 285 285 285 286 286 285 284 284 283 282 281 280 281 281 281 281 281 280 280 280 280 281 280 280 280 281 282 283 283 284 284 284 285 285
291 286 283 281 284 286 290 292 294 293 292 291 290 287 290 287 285 280 276 278 281 281 282 280 278 279 283 285 285 285 286 285 285 285 284 284 284 284 284 284 284 284 283 283 283 283 284 284 284 284 284 284 284 285 286 286 285 285 284 283 282 282 281 282 282 282 282 282 281 280 280 280 280 280 279 280 280 280 282 282 283 283 283 283 284 284
293 283 282 284 287 289 292 294 294 294 292 289 289 290 287 283 284 282 280 280 277 279 278 277 276 278 282 285 284 284 283 283 285 285 284 284 284 283 283 283 282 282 283 284 284 284 285 283 284 284 284 285 284 285 285 285 285 285 284 284 283 282 281 281 281 281 282 282 282 282 280 280 281 281 280 279 280 280 281 282 282 283 283 283 283 283
284 285 284 279 280 281 282 285 286 288 289 284 283 287 287 287 284 284 283 281 278 281 281 277 273 279 284 283 282 282 284 283 283 285 283 283 283 283 282 282 281 281 281 281 282 282 282 282 283 284 284 284 284 286 284 285 284 283 283 282 281 282 282 282 281 280 280 281 281 281 281 280 280 280 281 281 280 279 280 281 281 281 282 282 283 283
285 284 281 276 273 271 272 272 273 279 283 285 287 285 287 286 284 283 279 281 277 282 282 278 278 285 283 281 281 283 283 283 282 283 282 283 284 283 282 281 281 280 279 280 280 281 280 280 281 281 281 282 282 282 282 282 282 281 281 280 281 280 280 280 281 280 279 279 279 279 279 280 280 281 281 282 282 281 280 280 280 281 281 281 282 282
282 284 283 280 279 277 278 279 284 284 283 280 280 281 282 283 282 280 281 278 276 278 277 279 280 281 281 283 284 282 282 282 282 282 281 282 282 283 281 281 280 280 280 279 280 280 281 280 280 280 280 280 280 280 280 280 281 280 280 280 280 279 279 279 279 279 279 279 278 278 278 278 279 280 281 281 282 282 282 281 280 280 280 281 281 281
283 279 282 283 282 283 284 284 286 285 281 281 280 280 282 281 280 279 276 275 279 275 273 280 280 278 280 283 282 283 283 283 284 284 283 283 283 283 282 282 284 280 280 280 280 280 279 279 280 280 280 280 281 281 281 281 281 281 280 280 280 280 280 281 279 279 278 278 278 278 278 278 278 279 280 281 282 282 281 281 280 279 279 279 280 280
279 276 281 281 278 282 283 283 283 282 282 281 281 280 279 281 280 278 278 280 278 276 275 279 281 279 281 283 285 286 287 287 287 286 287 286 284 283 282 281 280 279 279 279 279 279 279 279 279 279 280 280 281 281 280 281 280 280 280 280 280 279 279 279 279 278 278 278 278 278 278 278 278 278 278 279 280 280 280 280 279 279 278 278 278 280
280 277 280 281 278 280 281 282 283 281 281 281 281 281 282 282 281 281 281 282 281 279 281 281 281 281 283 284 286 286 287 287 286 286 285 283 282 282 281 280 279 279 279 279 279 279 279 279 279 279 280 280 280 280 280 280 280 280 280 280 279 279 279 279 278 278 277 277 277 277 277 278 278 278 278 277 278 279 279 279 278 278 277 277 277 278
282 276 283 279 275 275 280 281 280 280 280 278 280 281 282 282 282 282 282 282 282 280 282 281 280 280 285 287 286 285 283 283 282 281 280 281 281 281 280 281 280 280 279 279 279 279 279 279 279 279 279 279 279 280 280 280 280 280 279 279 278 278 278 279 278 278 277 277 277 277 277 277 277 278 277 277 277 277 277 277 277 276 276 276 276 276
282 275 280 278 274 274 278 276 277 279 276 275 276 278 279 279 278 280 279 281 280 278 279 279 278 278 281 283 283 283 282 281 280 281 281 281 280 279 279 279 279 279 279 279 279 278 278 278 278 279 279 279 280 280 279 279 279 279 279 278 278 278 279 278 277 277 277 277 277 277 277 277 277 277 277 276 276 277 277 277 276 276 275 275 275 275
278 276 275 276 275 274 278 278 277 276 275 273 275 278 279 280 281 281 282 283 282 282 278 276 276 276 278 281 279 281 281 280 278 279 278 279 279 278 278 277 278 278 279 279 279 278 278 278 278 279 279 279 280 280 280 280 279 279 279 278 279 278 278 277 277 277 277 277 277 277 277 277 276 276 276 276 276 276 276 275 275 275 274 274 274 275
278 278 276 279 273 274 276 275 277 273 268 269 279 282 281 279 279 278 278 280 282 282 279 277 275 274 276 277 277 278 277 277 278 278 278 277 277 277 277 277 277 278 278 279 279 279 278 279 279 280 280 280 280 280 280 280 280 279 279 279 278 277 277 276 276 276 277 277 276 276 276 276 275 276 276 276 275 275 275 275 274 274 274 274 274 273
279 280 278 280 275 273 272 269 269 265 267 276 281 282 282 281 280 278 278 279 279 277 278 278 279 275 278 278 278 276 276 277 277 277 277 277 278 278 277 277 277 278 278 278 278 279 279 280 280 280 279 279 280 280 281 280 279 279 278 278 277 276 275 275 276 276 276 276 276 276 275 275 275 275 275 275 275 274 274 274 274 274 274 273 273 272
278 277 276 274 274 272 270 268 263 264 272 274 277 280 280 278 278 277 275 278 279 279 279 278 279 278 277 276 275 276 276 276 277 277 277 278 279 279 278 278 278 278 278 279 279 280 281 281 280 280 280 281 280 280 279 278 278 278 277 276 275 275 275 274 275 275 275 275 275 275 275 274 274 274 274 274 273 273 273 273 273 273 273 273 272 272
280 278 275 270 273 266 268 268 269 273 272 273 273 275 276 275 274 274 269 272 278 274 277 274 275 275 275 274 274 276 276 276 274 275 277 279 280 280 280 279 279 279 279 280 281 282 283 282 281 281 280 279 279 278 278 278 276 276 275 275 275 273 273 273 273 273 274 274 274 274 274 274 273 273 272 272 271 271 271 271 271 271 272 271 271 271
281 277 278 273 271 276 268 267 268 267 264 269 273 271 279 279 277 277 272 267 275 275 274 274 274 272 271 272 273 274 277 272 271 273 276 277 279 281 282 281 280 280 281 282 281 280 279 280 279 279 279 279 278 278 277 276 275 275 274 273 273 271 272 271 271 272 272 272 272 272 272 272 271 271 270 270 269 269 269 270 270 270 270 270 269 269
280 280 278 275 272 273 270 267 266 264 266 271 270 274 276 277 277 276 271 267 273 270 274 274 272 272 272 272 273 274 272 267 269 272 276 278 279 280 280 280 279 279 278 278 279 279 278 278 279 279 278 277 276 276 275 274 274 273 271 272 271 271 270 270 271 271 270 270 270 270 270 270 269 269 268 267 267 267 267 267 267 268 268 268 268 268
271 273 273 273 272 273 271 269 266 269 266 271 271 276 277 279 278 273 264 264 273 272 274 274 273 273 273 272 272 273 271 266 270 274 277 277 278 277 278 278 277 278 278 278 279 279 278 279 278 277 276 275 274 274 273 273 272 270 271 270 270 269 269 269 270 269 269 269 269 268 268 267 267 266 266 265 265 265 265 266 266 266 266 266 266 266
268 267 271 270 271 271 273 269 271 271 276 273 273 275 277 279 274 265 262 267 273 273 275 275 275 274 273 272 273 271 275 276 277 278 278 277 277 277 278 278 278 278 278 278 279 281 277 277 277 276 275 274 273 273 272 271 270 269 269 269 268 268 268 269 268 268 267 267 266 266 265 265 264 263 263 264 263 264 264 264 264 264 263 263 264 264
266 266 267 268 268 268 268 267 268 271 275 275 274 277 278 273 264 264 271 275 274 274 275 276 275 276 275 275 275 275 276 277 277 277 277 277 277 278 277 278 278 278 278 279 279 277 276 276 275 274 273 273 272 272 270 268 267 268 268 267 266 267 268 267 266 266 265 264 264 263 263 262 262 263 262 262 262 262 262 262 263 262 262 262 262 262
267 265 263 264 267 267 267 265 265 263 273 274 275 273 276 268 269 274 273 275 276 274 276 276 277 278 278 277 277 276 276 276 276 277 277 277 277 277 278 278 278 277 277 276 275 275 275 274 273 272 271 271 270 270 268 266 265 265 266 265 266 266 266 265 265 264 263 262 262 261 261 261 261 261 261 261 261 261 261 261 261 261 261 261 261 260
271 264 265 268 272 262 265 263 263 270 275 277 274 270 273 276 277 277 276 274 277 277 276 277 278 279 278 277 276 277 277 277 276 276 276 276 276 277 277 277 277 276 276 275 274 273 272 271 270 270 269 269 268 267 267 265 264 264 264 264 265 265 264 263 262 262 261 261 260 260 260 260 260 261 261 260 261 260 260 260 260 260 260 260 260 260
274 269 272 267 271 268 265 268 271 275 276 278 278 277 278 279 278 277 277 277 276 277 277 277 277 278 278 277 276 276 276 276 276 276 276 276 276 276 276 276 275 275 274 273 272 271 269 269 267 267 266 267 266 266 264 263 262 262 262 263 264 263 262 261 261 260 259 259 259 259 259 260 260 260 260 260 260 259 260 259 260 259 260 260 259 259
274 277 276 273 272 275 275 276 277 277 278 277 278 279 278 278 278 278 277 277 278 279 278 278 278 277 277 276 276 275 275 275 275 276 276 276 276 276 276 275 274 273 272 270 269 269 267 266 265 264 264 265 265 264 264 262 261 260 261 263 262 262 261 260 259 259 258 258 259 259 259 259 259 259 260 260 260 260 260 259 259 259 259 259 259 259
274 276 274 271 274 271 265 275 274 276 277 278 278 279 279 279 279 279 278 278 278 278 278 277 277 277 277 276 276 275 275 276 276 276 276 276 276 275 274 273 272 270 269 267 268 267 265 264 263 263 262 262 263 262 261 260 260 261 261 261 261 261 260 259 258 258 258 258 258 259 259 258 258 259 259 259 260 260 260 260 259 259 259 259 258 258
271 278 273 274 273 272 271 275 276 277 277 278 278 276 276 277 278 278 279 278 279 278 278 277 277 276 276 275 275 275 276 276 276 276 276 276 275 273 272 270 269 268 268 267 267 265 263 263 262 262 261 262 262 261 260 260 259 259 260 260 260 259 259 258 258 258 258 258 258 258 258 258 259 259 259 259 259 258 258 259 259 258 258 258 258 258
275 277 269 272 271 274 275 276 277 277 277 277 278 278 278 278 278 278 278 278 278 277 277 277 277 276 276 276 275 276 275 275 275 275 275 274 272 271 269 268 267 267 266 265 265 264 262 262 261 260 260 260 260 260 259 258 258 258 259 260 259 259 258 258 258 258 257 258 258 258 259 258 258 258 258 258 258 258 258 258 258 258 259 260 260 260
275 272 276 274 270 269 270 273 274 269 270 275 277 278 279 279 279 278 276 275 275 275 276 276 276 276 276 276 276 275 274 274 274 275 272 271 269 267 267 266 265 265 264 264 263 262 261 261 260 259 259 259 260 259 258 257 258 258 259 259 258 258 257 257 258 257 257 258 257 258 258 258 257 257 257 257 257 257 257 261 265 264 261 261 266 268
275 275 275 272 271 270 275 276 277 277 277 277 278 278 277 277 277 277 277 276 276 276 276 276 275 275 275 274 274 273 272 273 270 268 268 267 266 266 265 264 264 263 263 262 261 260 259 259 258 258 258 258 258 258 257 257 257 258 258 258 258 258 257 257 257 257 257 257 257 257 258 257 257 257 257 257 257 257 257 257 259 265 267 267 267 268
Wind_Speed
5 4 4 6 7 9 10 10 11 12 11 11 8 7 7 7 7 6 9 8 4 2 4 4 4 5 7 7 9 15 14 8 9 9 7 8 12 10 11 11 11 13 10 8 8 10 12 12 11 10 10 10 10 11 12 12 12 12 11 11 11 9 8 7 5 3 3 2 2 2 1 0 1 0 1 1 2 3 2 3 4 4 4 4 5 5
3 5 5 7 10 12 12 10 10 6 4 6 5 5 7 3 9 6 8 7 1 2 2 3 5 6 8 9 15 14 9 8 10 3 11 12 11 10 11 10 11 8 6 6 10 11 11 11 11 9 9 10 13 12 13 13 13 12 12 11 11 11 11 11 9 7 5 3 2 2 1 0 1 2 1 1 1 1 3 3 4 3 3 4 4 4
2 7 6 10 11 12 10 9 9 6 6 5 5 3 4 5 7 7 10 4 1 2 5 3 5 7 11 16 16 10 8 3 9 13 10 12 10 10 9 10 9 8 7 9 10 10 10 11 11 10 9 10 10 9 11 10 11 13 12 12 11 12 11 10 11 9 6 7 8 8 6 8 4 6 5 4 3 3 3 4 3 3 2 3 3 4
5 4 14 12 10 10 9 9 8 6 5 5 5 4 6 6 4 3 2 2 2 1 2 3 8 7 11 15 13 13 5 9 12 16 14 12 12 11 11 9 8 6 7 10 10 10 9 10 10 10 10 10 8 8 9 11 11 11 11 12 11 11 10 10 10 10 8 6 6 6 6 5 6 3 4 5 5 5 5 4 2 2 1 2 2 3
9 4 3 10 11 9 9 7 5 5 6 4 6 6 6 6 5 5 3 4 4 4 4 5 5 5 10 12 7 4 4 15 10 13 13 10 10 9 9 9 8 7 6 9 10 10 10 11 12 12 10 8 9 10 10 11 12 9 11 11 10 10 10 9 10 11 8 7 5 3 3 2 2 2 3 2 2 2 1 1 1 1 0 1 1 2
10 8 7 5 4 4 3 4 7 4 5 5 5 8 9 6 7 5 3 4 3 4 1 3 3 3 2 5 9 10 3 10 4 12 10 10 8 8 10 9 5 5 6 9 10 10 10 10 9 9 9 11 10 11 10 9 11 11 10 10 10 9 10 10 10 11 9 8 8 8 8 8 6 6 4 3 1 1 2 2 1 1 1 1 1 1
4 2 1 2 3 4 3 5 6 2 5 2 3 1 1 1 2 2 4 1 2 1 1 1 1 7 1 9 8 7 4 10 3 8 10 9 8 8 8 7 6 5 6 8 9 9 9 9 9 10 12 11 11 10 8 9 11 13 12 11 10 9 9 10 10 10 9 8 8 8 8 7 6 7 5 4 4 6 3 2 1 1 1 1 1 1
4 4 4 2 1 2 3 6 5 7 3 5 0 2 1 1 1 1 0 2 4 1 4 4 3 6 9 8 6 6 10 9 6 7 10 9 8 9 10 7 6 5 6 7 8 8 7 8 9 10 9 9 9 7 7 9 11 14 13 12 11 10 10 10 10 11 10 8 8 9 8 7 7 7 6 7 5 4 3 3 0 1 1 1 1 1
0 2 1 3 3 3 6 5 0 6 5 1 1 2 1 1 1 1 2 4 3 2 5 5 6 4 7 5 10 12 13 9 7 8 10 9 8 9 9 8 5 5 5 5 6 7 6 7 7 7 8 7 6 8 9 10 10 12 13 13 11 13 12 11 12 11 11 10 9 8 7 7 6 7 6 6 6 6 2 1 0 0 1 2 1 2
1 2 3 5 4 5 4 1 1 2 4 1 1 1 1 2 2 5 4 4 3 2 8 5 8 6 11 7 6 8 10 8 5 6 8 8 8 9 8 6 7 5 4 4 5 5 6 6 7 6 6 7 8 7 7 8 10 12 12 13 14 14 12 11 13 12 11 11 9 9 9 8 8 7 7 7 7 6 7 5 2 1 1 2 3 2
1 1 1 1 5 2 3 1 1 2 2 1 0 1 2 4 5 3 3 2 1 4 11 7 11 10 6 1 7 3 3 9 8 5 7 8 8 9 8 6 4 4 4 4 4 5 5 6 5 5 6 6 6 7 8 11 12 12 12 12 14 12 11 12 12 12 12 11 10 9 9 8 8 8 7 7 7 7 7 6 6 5 2 1 2 3
1 1 1 3 2 2 3 0 2 1 1 1 0 1 2 6 3 2 1 4 1 6 5 9 13 13 6 4 2 4 4 16 16 15 13 11 9 8 8 7 5 4 4 4 4 5 4 4 4 4 4 4 6 9 12 12 11 12 11 11 13 13 12 11 11 12 12 11 11 10 10 10 9 9 7 7 7 8 7 7 7 7 7 6 2 1
3 8 4 2 3 6 1 0 0 1 1 1 1 2 1 2 1 2 3 1 5 7 2 8 3 5 10 5 9 8 8 3 4 7 9 10 9 8 8 8 5 4 4 3 4 4 3 3 2 2 3 5 10 11 11 11 9 9 10 11 12 12 11 10 10 11 11 11 11 11 10 10 9 9 9 8 9 7 7 7 7 7 7 7 8 6
3 1 4 3 4 3 4 5 2 1 3 3 4 4 2 1 2 3 4 3 3 0 3 4 7 1 1 3 3 6 7 7 12 12 11 10 9 8 7 7 5 4 3 4 4 4 2 1 0 2 6 9 9 9 8 8 8 7 8 9 10 10 9 8 9 10 10 10 10 10 9 9 8 8 8 8 8 8 8 8 8 7 7 7 6 7
4 4 4 5 2 6 7 7 2 1 8 9 3 6 6 4 2 3 2 5 4 4 0 0 4 5 3 3 4 8 7 9 10 11 9 10 9 8 7 7 6 4 4 4 3 3 1 1 4 7 8 8 7 6 6 5 7 6 8 8 9 9 10 9 9 8 9 8 9 9 8 8 7 8 7 7 6 7 8 8 8 8 8 8 8 7
6 6 1 1 1 4 7 3 2 1 1 4 3 1 1 5 1 7 3 4 2 3 5 2 4 2 3 4 7 6 8 9 8 10 9 9 7 6 7 7 5 3 2 3 4 4 4 4 6 7 7 6 5 5 5 6 5 7 7 7 7 7 6 7 7 7 7 7 7 8 9 9 8 7 6 7 7 7 7 7 7 8 8 8 8 8
0 3 1 2 1 2 4 0 0 1 2 1 3 1 3 1 1 2 4 4 2 2 8 3 4 6 3 4 6 6 9 7 7 8 8 8 7 6 6 4 3 3 4 4 4 3 4 5 5 6 5 5 5 5 6 6 6 6 6 6 7 7 6 8 7 6 6 6 6 7 8 8 8 9 9 9 9 8 8 8 8 8 9 8 8 8
3 1 1 3 2 1 1 2 1 0 1 4 0 2 2 1 1 1 3 1 4 7 6 4 6 6 4 6 4 5 8 6 7 6 8 8 6 6 5 3 3 4 4 2 2 2 3 4 4 4 4 4 4 4 5 6 5 5 5 5 6 7 9 8 8 7 7 6 6 6 7 7 7 6 6 7 8 8 8 8 8 8 8 9 9 8
3 3 4 2 3 2 1 0 2 2 1 4 3 1 1 1 3 2 1 5 7 8 5 4 7 7 4 5 4 3 7 7 7 7 7 7 6 5 4 4 4 3 2 1 1 3 3 3 3 3 4 4 3 4 3 4 4 4 4 4 5 6 6 6 5 5 5 5 5 4 5 5 6 5 5 5 6 6 6 7 7 8 8 8 9 9
1 2 4 1 1 1 0 1 3 1 2 3 1 2 1 1 4 4 3 2 2 7 4 6 6 7 4 1 4 1 9 9 9 6 6 6 5 5 4 4 3 2 1 1 1 1 1 1 1 1 1 1 1 2 3 3 3 4 3 4 4 3 4 5 5 5 5 5 5 5 4 5 4 5 5 5 5 7 7 6 6 7 8 9 8 8
0 1 3 1 1 1 2 3 4 2 4 2 2 1 1 1 1 1 2 3 4 4 4 4 7 4 1 2 3 6 7 7 8 8 6 5 4 4 4 4 4 3 3 2 2 1 1 1 1 2 2 2 3 3 3 3 4 3 4 4 4 4 4 5 4 4 5 4 4 4 4 4 4 5 4 5 5 5 6 6 6 6 6 6 8 8
0 2 6 3 3 3 4 3 4 4 0 1 4 4 6 4 2 4 9 2 3 5 7 7 12 5 1 3 3 5 4 6 6 8 6 4 4 4 4 4 4 4 4 3 2 2 1 1 1 1 2 2 3 2 1 2 2 3 4 3 4 4 3 4 4 4 4 4 4 5 4 4 3 3 4 5 5 5 6 6 6 6 6 6 7 7
1 0 2 3 4 7 5 6 6 8 8 7 4 4 2 0 1 2 7 4 3 4 4 5 9 6 1 2 3 3 5 6 7 7 6 5 5 5 5 4 4 3 3 3 3 2 1 1 1 1 2 1 1 0 0 0 1 0 0 0 2 2 3 3 3 4 4 4 3 5 4 4 5 4 4 4 4 4 5 5 6 6 6 7 7 6
6 1 1 5 6 8 12 10 10 9 8 8 6 4 3 4 1 2 2 1 1 3 6 5 8 3 1 1 2 4 4 4 6 6 9 7 4 4 5 5 5 4 4 3 3 3 2 2 1 0 0 0 0 0 1 0 1 1 0 0 1 1 1 3 3 4 4 4 4 5 4 4 4 5 5 5 3 4 4 4 4 5 6 7 8 8
1 4 1 2 3 3 5 4 2 5 3 3 1 3 4 4 5 2 0 2 3 5 10 6 11 4 1 1 0 2 2 4 4 4 4 5 4 5 6 4 4 3 3 2 2 1 1 1 0 0 0 0 0 0 1 1 1 1 1 1 1 1 1 1 1 4 5 5 6 6 5 5 5 5 5 5 4 4 4 4 4 4 4 5 6 6
1 2 1 2 3 4 6 5 2 3 3 2 1 4 4 4 5 5 4 1 7 2 5 4 8 4 1 1 2 3 4 4 3 4 1 5 6 7 5 5 4 4 2 1 1 1 1 1 1 0 0 0 0 0 1 1 1 1 1 1 1 2 2 2 1 2 3 4 5 5 6 6 6 7 7 7 5 4 4 5 5 6 7 6 7 6
0 1 1 4 5 8 6 3 3 2 1 2 4 5 8 8 7 4 4 8 12 7 8 10 14 12 10 11 9 4 6 5 7 6 8 7 7 6 5 5 4 3 2 1 1 1 1 1 1 1 1 1 2 2 3 4 4 5 5 5 5 4 4 4 4 5 5 6 5 6 6 6 7 8 8 8 7 6 5 5 5 6 7 8 8 10
1 1 6 5 6 8 8 11 10 9 10 8 8 10 10 8 7 7 8 12 4 5 13 9 11 9 9 9 6 5 2 4 6 8 9 8 9 9 7 4 4 3 2 2 2 2 3 3 2 2 2 1 1 1 2 2 2 3 3 4 4 5 5 5 5 5 5 5 6 6 6 6 5 6 8 8 8 7 7 6 6 5 6 7 9 10
1 3 3 4 4 6 6 9 8 8 6 7 8 9 12 11 10 12 11 8 4 9 14 10 12 14 12 10 9 10 10 11 11 10 11 9 6 5 5 5 5 5 5 5 6 5 5 5 4 4 3 3 2 2 3 2 2 2 2 2 3 4 4 3 3 4 4 5 6 6 6 6 6 5 6 7 7 8 9 9 8 7 7 6 7 7
1 3 4 4 7 8 11 9 7 8 8 9 10 11 12 14 16 14 12 12 14 13 11 13 12 14 11 11 10 12 12 11 9 5 3 6 4 5 4 4 5 5 6 6 6 6 6 6 5 5 4 4 4 4 2 2 2 3 2 3 4 4 4 2 3 3 4 4 5 5 5 6 6 7 7 6 7 7 7 8 8 8 9 9 8 8
2 5 1 2 4 5 8 7 5 6 7 11 12 12 14 16 14 11 13 15 12 11 15 15 14 16 11 11 8 3 5 4 6 5 4 4 4 3 4 4 5 6 6 6 6 6 5 5 4 4 4 4 4 3 3 4 4 4 3 4 4 4 3 1 3 4 5 6 5 5 5 6 6 7 8 8 8 7 7 7 6 6 8 9 9 11
2 2 3 2 5 8 8 6 4 2 3 5 10 14 16 13 13 12 13 6 9 11 12 11 12 11 3 3 2 1 2 2 1 0 1 1 3 4 3 4 4 5 5 5 5 5 5 4 4 5 4 4 4 4 4 4 4 3 3 4 4 4 2 2 4 5 5 5 5 5 6 6 7 7 8 7 8 9 9 9 8 9 9 9 10 10
2 1 1 2 7 8 10 6 5 0 4 9 16 20 14 16 17 15 13 12 13 11 13 13 12 3 3 0 2 1 2 1 3 2 3 2 1 3 1 3 4 4 4 5 5 4 5 5 5 5 5 5 5 5 5 4 2 3 4 4 4 1 2 3 4 5 6 6 6 6 7 7 7 8 8 8 8 8 7 8 9 9 9 10 9 9
4 3 4 3 7 6 8 4 1 3 10 16 5 1 8 11 9 11 12 11 11 10 7 5 4 3 1 1 2 1 2 0 2 2 2 2 2 4 3 4 4 5 5 5 4 4 5 5 5 6 6 6 6 4 3 1 1 4 4 2 0 1 3 4 5 6 7 7 7 7 7 7 6 8 9 9 8 8 8 8 9 9 8 8 9 10
4 6 6 5 7 7 3 4 5 11 16 4 4 5 7 8 6 9 10 9 9 7 8 11 10 2 4 4 3 4 3 2 3 1 3 3 3 5 6 6 5 4 3 3 4 4 4 4 5 4 5 4 2 1 1 1 2 2 1 1 1 2 3 4 6 6 7 8 8 7 7 7 7 9 10 10 9 8 8 9 10 11 10 9 9 11
7 7 3 4 4 2 3 5 6 11 4 2 6 2 2 1 5 2 8 7 9 10 11 8 3 4 4 4 4 2 2 0 1 3 5 5 6 6 7 6 5 4 4 5 5 5 5 4 5 4 2 2 3 1 1 2 2 1 1 2 2 3 3 4 6 7 7 8 7 7 7 7 9 10 10 8 8 9 11 11 12 13 12 11 11 11
8 4 4 4 4 6 5 9 15 6 10 8 7 5 3 6 3 4 6 4 2 2 1 3 4 6 5 4 4 1 2 2 3 7 5 7 8 8 7 6 4 5 5 5 4 5 5 4 2 2 3 3 3 2 3 2 3 3 2 3 3 3 4 5 6 7 7 7 8 8 7 8 9 10 10 10 11 12 12 13 14 14 11 13 13 14
6 9 5 6 5 8 6 8 7 5 10 7 2 2 2 1 3 1 1 4 5 6 3 3 5 6 6 5 4 3 3 2 5 6 5 2 4 3 1 3 4 5 5 5 5 4 3 1 5 4 4 1 1 1 3 4 4 4 4 4 4 4 6 5 7 7 7 8 7 8 8 9 9 10 11 11 12 13 14 14 13 13 12 12 14 15
4 6 6 8 4 5 6 8 8 8 5 4 4 1 0 1 3 5 6 8 1 1 2 3 3 6 7 5 4 4 2 1 5 4 5 2 1 3 5 6 6 6 5 4 4 4 1 4 3 3 3 4 4 5 5 5 5 4 4 5 5 5 6 7 7 7 7 9 9 10 9 9 9 10 11 12 13 12 14 14 14 13 12 12 13 15
3 2 4 7 9 9 8 9 9 4 4 1 3 2 2 2 4 8 11 6 1 3 1 4 6 6 5 5 5 5 5 5 6 6 2 3 2 4 5 6 5 5 4 4 2 4 4 2 4 4 4 4 4 4 4 4 4 4 5 6 5 6 7 8 7 8 9 10 11 9 9 8 9 10 10 12 14 13 13 12 12 12 12 13 12 14
2 2 4 11 11 12 14 9 6 7 5 3 5 3 2 2 3 4 14 6 2 4 3 5 7 8 6 5 4 5 7 7 7 8 6 4 3 5 6 5 6 6 6 3 3 3 4 4 5 5 4 4 4 4 4 4 4 5 5 6 7 7 8 8 9 10 11 11 10 10 10 9 8 11 12 11 12 12 13 11 12 13 13 14 13 13
0 3 3 4 8 9 8 11 10 7 5 6 2 4 3 3 4 10 2 4 4 4 5 5 6 5 5 7 6 7 7 6 6 6 6 6 6 6 5 6 5 4 2 5 5 5 4 5 4 5 5 4 6 5 4 4 4 4 6 5 7 7 8 10 11 10 10 11 11 11 11 10 10 10 11 11 11 12 14 12 11 12 13 12 13 15
6 4 5 5 3 3 4 7 7 9 2 7 3 2 2 4 3 1 2 1 4 5 5 5 6 8 7 8 8 7 6 6 6 6 6 6 5 6 6 6 7 3 3 2 5 5 5 4 4 4 4 4 4 3 3 4 5 5 5 7 8 8 9 9 10 10 10 11 12 12 12 12 12 12 10 11 11 12 15 13 12 13 13 13 14 15
3 1 3 5 5 4 5 6 4 1 1 1 5 4 4 6 5 4 1 1 3 5 5 5 6 8 7 7 7 7 8 8 6 5 6 5 5 5 7 5 2 5 4 6 6 5 5 4 3 3 3 4 3 4 4 4 5 5 7 10 8 8 7 8 9 10 11 11 12 12 12 12 12 11 11 11 12 13 14 14 13 12 11 11 12 12
6 9 7 8 4 6 5 4 2 2 5 6 7 7 6 6 5 3 3 4 4 5 5 6 7 7 7 7 6 6 7 6 6 6 5 5 5 6 5 2 4 4 5 4 5 4 4 3 3 3 3 3 3 3 3 4 5 8 10 9 7 8 9 9 10 11 12 12 12 12 12 12 11 12 12 11 11 13 13 14 12 12 11 10 11 12
4 8 5 4 9 4 5 7 4 6 11 8 4 5 5 5 7 6 6 7 6 7 6 7 6 7 6 5 5 5 5 5 5 6 6 5 5 1 5 4 4 5 5 4 3 4 3 3 2 2 2 2 2 2 2 3 4 8 10 8 7 8 9 10 11 12 12 12 12 12 12 14 14 12 11 12 11 11 11 12 12 12 12 11 12 12
6 7 4 7 5 3 4 3 5 10 9 9 10 8 7 8 9 8 7 8 7 7 7 6 7 6 6 5 5 5 6 5 6 7 6 6 3 2 3 4 4 4 3 3 3 3 3 3 4 3 3 4 2 3 3 4 4 5 7 9 9 9 10 10 11 13 12 12 12 12 11 13 12 12 12 10 10 9 9 10 11 12 12 12 13 13
7 6 9 12 9 9 10 6 11 10 9 10 8 6 7 7 8 8 7 6 6 6 6 7 5 6 3 3 4 5 7 6 7 7 7 4 2 3 3 3 3 3 4 4 2 2 2 2 4 5 5 5 4 4 4 4 5 5 7 7 8 9 10 11 11 12 13 14 12 11 11 12 13 14 12 11 10 11 11 10 10 12 13 12 13 14
5 1 6 4 5 10 6 8 11 9 9 11 10 7 7 8 7 7 7 7 7 7 7 7 5 4 3 5 4 5 6 6 6 5 3 1 2 2 3 3 3 3 2 3 1 2 2 3 4 4 4 6 4 5 5 5 5 5 7 8 8 9 10 11 11 12 13 12 11 12 11 11 11 11 12 13 12 10 10 12 12 13 13 13 12 12
6 12 12 6 9 7 8 8 4 4 7 9 10 12 12 12 11 9 6 5 4 5 5 4 3 3 4 5 5 5 6 6 3 1 1 1 2 3 3 3 2 2 1 2 2 3 3 3 3 4 5 6 5 5 6 6 6 6 6 7 7 8 10 11 12 12 12 11 11 11 11 11 11 11 12 12 13 13 12 13 22 19 16 15 22 30
13 14 8 9 9 10 8 8 9 12 12 10 9 7 6 6 6 7 6 6 6 6 6 5 4 3 2 3 1 3 4 3 0 3 2 2 3 3 3 2 2 2 3 3 4 4 3 3 3 5 5 6 5 6 6 7 7 8 7 7 8 8 10 10 11 11 11 11 11 12 13 12 12 11 11 12 12 12 13 13 12 20 28 27 28 29
Wind_Direction
137 167 183 189 212 231 238 230 229 235 243 258 265 261 264 284 288 278 281 295 65 321 236 263 282 292 284 280 283 271 277 294 286 276 289 56 70 65 66 60 61 55 47 33 29 33 31 24 12 9 9 10 15 21 18 23 24 21 16 12 8 360 16 23 36 55 68 59 26 33 57 52 112 64 49 49 19 40 51 76 88 117 123 157 172 174
145 206 217 208 218 235 243 253 267 285 289 279 296 298 285 274 277 270 290 297 190 137 271 310 290 281 291 286 271 272 290 280 280 347 71 74 68 69 63 61 58 57 53 35 32 29 30 25 20 13 15 12 21 19 21 25 23 18 16 18 14 14 14 17 19 21 32 38 48 89 48 124 99 102 92 48 39 30 54 68 87 116 124 154 172 176
214 215 224 227 228 241 254 264 271 273 289 299 289 300 305 271 270 286 275 276 87 126 260 308 313 295 291 282 282 279 268 308 52 77 71 77 65 59 55 58 50 47 44 38 38 29 28 26 25 22 18 22 17 18 27 25 31 26 21 20 26 22 16 16 13 20 19 30 34 47 28 33 11 40 50 56 40 61 62 56 63 91 119 131 157 173
237 212 231 231 240 245 252 256 263 265 242 238 261 262 243 250 244 285 215 130 145 113 266 277 280 286 282 275 278 281 255 90 85 81 75 74 79 68 62 49 46 38 33 41 35 27 21 28 26 26 25 19 13 18 27 33 38 35 27 24 27 24 17 15 13 10 2 39 48 44 46 54 72 58 31 44 35 32 43 41 28 32 71 116 148 172
228 235 220 207 228 236 251 256 266 263 267 232 220 226 250 255 252 247 289 333 333 293 260 284 290 279 263 275 284 290 151 97 93 91 89 81 81 87 82 70 56 40 26 44 37 28 23 23 27 25 21 13 22 18 26 33 38 37 31 31 29 25 21 15 16 13 4 19 26 37 38 50 57 59 77 68 59 81 57 68 86 274 93 133 161 177
255 256 264 237 241 246 261 274 247 233 277 271 245 219 229 234 250 268 330 7 349 312 12 87 337 243 259 312 320 300 260 95 101 97 90 88 78 75 61 56 47 47 42 44 38 34 23 23 20 25 20 27 23 23 17 29 44 42 37 34 32 28 24 19 16 18 17 21 31 27 26 19 13 10 21 16 32 156 165 205 215 179 168 218 221 181
247 108 28 197 206 210 218 245 247 204 242 238 257 18 25 31 40 13 302 20 289 194 253 163 124 275 222 273 262 261 243 107 112 96 104 98 93 77 77 65 36 24 44 44 46 34 29 16 22 24 24 22 25 17 9 26 41 44 42 38 35 31 28 21 17 20 22 26 24 30 27 25 26 17 0 6 37 40 24 68 72 158 154 203 200 262
173 208 80 39 202 203 235 240 236 206 208 249 147 293 49 242 238 233 226 174 247 288 268 241 163 251 275 245 254 248 254 130 125 112 98 94 90 88 88 72 48 31 28 44 44 41 29 23 25 28 21 22 22 6 11 31 38 42 41 39 36 34 31 26 20 22 22 26 26 31 28 26 26 18 1 360 4 34 61 38 351 107 186 209 218 247
195 146 130 180 188 194 218 222 107 180 178 188 225 37 47 48 15 64 185 230 231 317 269 194 218 267 253 232 221 236 247 138 141 128 116 113 107 101 93 94 92 63 42 43 50 46 32 31 28 25 28 22 21 18 22 30 35 43 42 39 36 37 33 27 24 25 24 25 24 28 22 22 14 9 359 355 1 360 21 30 338 337 207 186 225 236
10 131 196 197 152 207 198 71 344 158 218 116 227 166 129 169 199 198 198 208 267 186 257 189 185 216 270 261 251 228 226 138 139 134 121 115 113 105 102 104 100 96 77 52 52 46 39 32 29 23 20 27 26 23 26 35 40 42 41 38 36 35 32 28 28 27 26 23 23 24 18 22 9 4 359 2 358 358 353 348 308 246 233 207 188 218
134 223 357 294 210 219 96 82 54 32 89 167 96 12 282 244 238 215 180 169 267 240 252 207 203 180 287 288 236 163 207 130 144 122 113 118 111 102 96 86 72 81 72 71 58 43 41 29 28 17 25 22 26 28 29 35 39 39 40 38 39 33 33 28 31 31 30 27 24 22 16 14 11 4 4 360 357 353 352 345 332 331 302 211 187 181
162 135 64 248 216 75 120 72 16 346 119 119 111 206 307 282 186 159 195 124 164 265 268 212 206 191 205 285 28 57 88 152 160 164 156 142 127 118 110 98 86 73 68 71 66 53 35 29 21 16 23 20 32 38 35 33 35 37 36 36 40 34 30 30 27 31 32 30 28 28 21 16 10 3 2 359 1 355 350 348 345 340 350 341 328 176
232 224 205 135 291 152 140 102 355 56 75 128 171 263 171 281 69 252 101 283 211 237 259 11 5 194 226 248 318 56 31 56 64 105 118 114 107 98 92 94 87 71 80 69 67 63 46 27 11 5 23 34 35 36 32 30 31 34 36 35 39 33 26 27 26 32 32 32 30 27 23 21 14 8 7 3 2 352 350 346 345 347 347 347 352 338
262 93 174 194 43 222 150 153 207 351 196 162 184 176 171 291 226 245 237 211 243 223 311 49 26 330 355 284 307 87 53 44 81 92 103 106 105 102 99 95 85 76 71 69 55 55 47 351 253 32 43 40 36 33 30 30 32 31 36 35 38 35 25 24 29 29 29 30 29 26 26 22 18 13 11 12 5 358 354 350 346 342 342 344 339 340
286 301 237 150 247 162 192 199 143 220 156 201 207 159 176 178 176 247 222 234 225 217 86 268 23 226 127 253 62 95 86 76 69 75 78 84 93 98 98 89 86 72 46 56 67 59 33 350 35 43 39 39 37 29 27 32 32 31 35 32 35 33 26 23 24 25 28 26 24 25 24 24 20 14 11 7 3 1 2 356 353 349 348 348 338 340
214 226 108 26 171 151 183 248 341 45 18 205 227 65 45 227 155 241 245 275 305 336 314 261 192 260 311 121 87 87 89 82 84 91 89 90 85 76 72 72 73 73 78 46 45 37 29 32 34 35 37 37 31 28 30 35 34 35 33 33 37 37 28 26 24 25 23 19 22 23 24 22 19 15 12 10 6 6 4 354 356 350 348 341 336 336
5 268 150 220 277 192 180 143 187 86 164 314 58 199 212 344 60 293 323 257 265 263 249 218 282 268 110 60 105 106 100 96 99 97 96 90 87 80 75 83 83 77 61 50 45 33 31 31 37 44 43 31 27 31 32 31 33 37 34 34 33 32 28 27 23 23 23 16 24 22 21 17 17 17 15 12 6 6 2 1 357 357 346 339 340 333
176 242 152 166 221 61 286 10 47 337 93 52 196 238 316 214 86 163 243 265 255 248 267 271 276 287 309 280 130 133 104 120 101 108 105 103 95 93 99 103 91 76 72 75 59 50 51 53 41 38 43 44 37 34 36 35 25 34 35 37 38 30 29 17 18 15 18 15 16 18 15 13 13 13 9 8 8 359 3 1 2 356 356 350 339 339
87 326 253 219 116 199 10 109 313 223 107 168 211 17 42 290 312 261 129 253 246 244 264 210 259 262 231 236 118 189 139 133 126 122 124 120 119 128 131 112 98 95 97 88 71 44 26 42 47 30 39 36 29 34 43 48 43 33 38 36 49 42 34 24 14 11 6 19 11 14 10 10 9 9 9 0 4 359 3 1 359 358 350 344 345 346
33 178 290 108 97 168 17 85 284 100 340 101 64 355 214 115 211 252 222 223 202 265 282 248 254 256 255 30 310 155 128 138 139 140 121 127 128 131 129 124 135 130 105 75 49 70 27 60 66 57 66 48 26 29 31 46 41 35 28 37 35 34 34 26 19 10 7 358 7 1 5 2 13 6 8 3 6 2 359 353 354 352 355 348 343 345
272 210 241 149 45 67 320 162 211 199 236 328 37 286 7 213 201 157 321 235 223 265 231 277 256 260 305 321 36 102 130 147 145 132 126 112 114 126 139 156 156 163 165 183 167 168 122 74 68 53 51 16 31 15 34 39 26 23 22 19 19 31 12 24 357 3 341 348 338 6 356 353 359 359 359 3 1 7 352 351 349 348 348 339 348 346
167 238 228 306 313 203 224 189 207 212 248 167 161 204 205 193 255 219 258 218 206 226 250 252 257 242 147 342 54 78 77 90 96 110 112 140 149 167 157 180 171 170 174 157 151 126 96 91 58 80 33 51 58 41 36 55 53 4 17 358 358 14 2 27 1 359 338 331 324 338 331 336 341 348 352 7 354 4 351 348 346 340 345 345 334 342
120 24 43 246 243 257 269 285 304 327 320 285 279 248 211 262 312 261 264 250 294 232 247 233 272 241 146 292 78 96 101 114 125 130 147 160 179 175 174 168 165 159 148 150 140 117 105 97 99 74 105 86 81 39 300 178 139 212 317 333 321 10 326 13 345 347 340 341 340 336 325 333 337 346 349 6 346 5 345 342 337 337 343 334 330 330
73 78 260 268 263 268 274 274 268 255 245 273 268 245 250 248 238 259 270 74 252 304 282 265 251 273 258 92 82 97 117 117 139 160 166 171 166 171 159 168 171 160 167 153 147 137 186 113 311 51 100 147 289 226 278 232 163 171 262 253 283 321 323 357 339 345 339 339 344 335 345 349 343 353 338 342 329 353 332 334 327 331 339 329 329 330
27 299 94 294 293 298 299 307 286 12 30 30 19 355 20 337 344 325 357 168 248 214 255 260 262 266 266 106 298 125 125 151 171 168 161 152 174 182 173 174 159 148 140 135 107 89 64 67 228 151 150 183 188 131 335 28 81 84 32 33 19 346 332 2 331 3 339 339 343 335 342 344 349 348 339 329 323 334 334 335 330 327 330 323 318 317
114 230 124 215 242 262 261 262 261 25 4 311 279 327 345 324 306 343 305 306 274 199 231 247 276 260 45 231 201 242 184 197 197 171 196 183 180 189 181 169 175 159 171 145 135 106 185 195 227 193 188 199 158 77 10 354 10 23 10 16 22 24 1 341 31 7 1 343 351 340 342 343 347 344 339 329 322 328 333 331 333 333 333 329 316 309
132 285 186 201 217 241 253 284 297 326 249 259 291 303 285 290 280 262 265 261 257 283 285 265 265 278 285 283 265 206 197 200 198 206 207 217 222 210 184 173 179 176 174 185 201 209 239 297 289 286 329 342 348 1 359 350 356 349 353 348 354 6 1 347 11 1 4 352 353 348 340 343 341 337 334 329 324 329 334 330 329 333 327 324 320 318
174 234 235 238 241 252 268 273 284 299 288 282 276 274 276 267 264 264 241 256 291 330 267 255 268 279 270 278 294 299 233 207 213 221 226 222 211 199 188 169 165 169 200 208 212 218 231 236 248 259 254 270 286 302 315 311 331 328 324 337 333 342 347 337 2 355 353 348 341 335 328 325 326 327 322 321 322 324 323 321 322 321 317 319 317 314
148 239 270 273 262 273 272 276 283 287 280 281 276 276 274 276 268 256 256 263 251 235 262 271 274 269 270 270 285 291 302 295 287 279 269 220 186 168 164 168 177 182 201 197 208 207 213 222 230 238 241 247 244 266 264 272 294 306 319 316 312 309 305 304 348 336 335 334 324 314 314 314 314 310 309 309 315 316 316 317 316 315 312 305 300 297
92 277 259 239 257 260 261 260 262 264 270 270 264 263 265 266 264 267 274 266 255 261 268 271 268 271 275 281 286 287 289 298 309 320 10 94 139 150 147 162 174 193 202 208 205 209 211 213 217 217 223 221 228 231 247 260 258 249 238 263 273 274 271 313 310 311 309 299 288 292 300 304 307 308 305 306 303 298 299 302 304 306 307 304 297 291
101 257 241 28 317 278 278 282 299 293 280 275 274 271 264 262 269 274 271 268 282 276 266 268 273 273 271 275 288 3 43 53 52 51 51 75 94 121 151 180 195 204 211 206 205 206 206 207 210 219 219 220 216 222 226 233 237 240 248 261 264 260 263 294 306 297 285 284 284 291 296 300 297 300 300 296 299 297 292 284 281 285 290 295 298 300
359 268 342 301 279 275 267 270 284 23 338 289 280 270 262 263 268 254 256 258 255 259 267 276 268 269 312 54 73 98 51 49 92 60 101 125 132 145 179 206 213 216 216 214 211 201 201 208 218 219 219 217 217 217 223 230 238 236 252 261 269 265 287 335 301 291 282 278 286 291 293 290 290 285 280 283 284 288 289 290 292 292 293 296 300 300
197 163 233 247 257 255 263 268 263 15 308 280 251 249 257 256 251 261 260 256 251 263 268 266 267 247 202 238 26 316 108 10 52 4 35 4 70 132 202 238 239 238 231 228 222 209 205 211 215 216 217 218 219 215 221 208 199 233 244 260 254 287 349 319 313 301 295 290 289 287 284 282 280 280 282 280 276 272 276 278 280 282 285 286 290 298
186 199 219 215 255 263 268 276 34 283 256 248 269 219 222 240 246 252 251 248 249 233 247 228 235 176 201 166 192 251 119 171 120 310 101 129 349 317 279 255 236 232 241 244 224 212 216 221 220 216 210 211 215 202 194 166 213 236 236 230 306 26 340 332 308 299 293 291 285 280 277 275 278 280 281 281 279 278 277 276 273 276 279 285 288 285
203 210 216 213 241 254 298 341 287 237 245 274 126 211 254 266 275 259 262 263 265 281 290 286 287 204 203 183 147 105 84 17 14 33 312 270 199 219 235 244 249 246 255 261 279 263 239 224 227 230 238 236 178 121 88 305 256 265 339 21 12 355 341 312 296 290 286 285 285 284 283 284 284 284 284 281 280 282 284 288 290 286 284 283 283 286
214 207 208 238 234 295 241 211 240 240 234 273 265 263 18 71 228 288 280 254 258 254 253 268 261 160 141 108 84 109 108 346 348 288 255 255 235 225 238 237 239 242 247 245 239 252 260 261 250 252 253 110 78 53 41 289 290 38 312 30 9 334 318 300 291 284 285 285 286 287 289 294 293 290 289 291 295 297 296 296 294 294 295 292 286 279
208 214 203 254 211 223 220 227 242 305 306 272 281 256 200 223 235 220 248 282 198 219 215 137 135 142 135 141 132 125 95 58 348 288 261 233 239 233 223 228 223 239 245 258 246 252 255 256 273 108 101 70 64 19 314 336 40 30 7 2 334 326 301 294 286 287 288 289 293 295 297 299 299 298 300 303 303 301 300 299 296 293 293 291 289 288
204 206 216 219 245 223 226 259 272 276 263 271 240 277 337 83 111 246 106 287 287 286 276 179 202 163 151 153 164 185 123 62 329 288 291 285 243 236 266 228 246 244 245 247 259 258 268 10 84 70 78 49 1 357 35 42 40 28 2 332 315 307 296 292 289 292 294 294 302 305 308 307 305 304 306 308 303 300 298 295 293 291 295 292 293 290
202 206 199 218 247 259 257 252 247 256 256 140 192 160 134 128 58 18 17 290 218 332 308 145 154 156 164 168 199 121 107 211 256 262 273 117 144 180 217 241 231 230 230 235 244 265 53 89 93 87 65 59 39 37 49 40 32 7 332 311 307 303 302 301 300 304 306 307 308 307 308 310 311 307 306 302 299 300 298 297 296 294 295 290 288 285
166 212 153 235 231 224 236 243 251 238 254 269 192 231 203 79 52 48 309 289 93 273 251 138 161 174 199 193 174 150 157 209 248 253 239 225 228 245 232 236 242 249 258 251 260 122 123 92 67 51 59 48 60 54 44 32 11 344 318 312 311 311 306 306 311 311 310 308 307 309 311 312 309 304 303 300 298 295 290 291 293 293 293 290 288 288
159 294 211 218 226 237 238 253 261 251 255 184 179 201 182 136 76 287 258 265 217 218 220 166 191 198 180 184 192 162 230 200 219 240 248 254 280 286 276 247 229 215 227 226 126 111 93 83 86 81 72 76 55 37 21 18 3 331 321 314 315 308 307 312 314 312 311 311 309 309 308 307 304 301 297 293 292 293 292 292 292 293 291 290 289 287
292 131 298 235 227 229 228 241 240 268 235 183 292 154 154 72 235 235 238 160 168 213 234 189 197 215 185 201 203 215 230 240 254 261 267 271 254 251 256 260 263 267 98 122 107 81 73 69 63 61 52 50 35 24 25 20 355 321 318 316 307 304 315 318 314 314 313 310 308 307 304 302 299 294 293 294 293 292 289 288 286 286 289 288 288 288
205 141 225 210 225 231 214 242 255 250 307 102 153 29 280 156 244 171 214 241 179 195 188 211 194 229 199 225 230 237 259 273 264 259 259 259 261 261 264 267 261 222 131 88 68 57 75 65 61 47 38 20 18 25 23 22 342 324 318 309 305 315 318 315 316 313 310 308 306 305 303 301 299 298 297 293 291 289 289 292 290 287 285 286 286 285
253 130 237 237 168 199 205 222 213 181 55 154 130 190 221 205 207 238 173 260 212 171 200 207 225 220 221 220 237 258 260 261 268 265 267 267 261 268 263 264 108 103 87 83 89 73 61 64 48 27 5 4 4 30 26 22 346 324 315 304 313 317 316 315 313 309 305 303 302 302 301 300 300 298 295 294 293 289 288 289 288 285 284 285 284 286
204 194 189 225 203 182 196 225 211 142 177 186 169 207 224 254 259 214 195 205 223 245 203 205 227 236 228 226 236 239 259 251 247 246 245 251 256 264 262 143 120 107 103 96 92 73 65 51 19 5 340 336 18 17 36 37 352 317 305 304 322 316 316 312 309 306 302 301 301 300 300 299 298 298 295 293 291 292 292 289 288 288 287 284 284 284
251 228 223 262 252 259 275 257 286 297 277 267 211 204 218 250 258 253 242 251 238 235 218 224 230 233 239 229 241 263 245 257 270 272 264 262 266 249 132 118 92 90 90 88 75 57 50 31 5 343 300 307 360 14 29 8 347 309 298 312 315 314 311 308 307 304 301 301 300 300 302 301 299 294 290 289 287 283 284 287 292 291 293 290 286 285
234 244 244 235 258 281 248 184 221 243 253 258 256 249 244 233 247 254 250 236 236 229 231 221 216 225 226 228 225 233 253 256 264 266 263 266 259 144 128 118 103 102 97 87 75 51 18 5 328 312 314 318 341 6 349 328 306 286 299 307 310 309 307 304 302 300 301 301 302 301 301 298 300 299 296 292 290 286 287 293 294 293 293 291 289 287
272 224 243 239 246 226 247 235 251 244 243 250 244 240 248 250 249 246 238 225 224 227 219 226 227 249 231 242 226 232 252 256 257 260 260 246 156 132 117 107 102 74 73 78 64 58 24 338 317 313 321 319 330 335 319 308 295 291 296 300 305 306 304 301 301 301 303 304 304 302 303 300 297 298 299 299 298 300 300 293 291 291 289 290 287 286
238 225 237 139 195 241 249 240 242 255 263 261 259 252 240 241 241 245 250 258 263 262 253 244 203 202 202 228 227 233 248 251 239 244 243 168 117 98 85 82 70 73 47 33 28 51 342 316 313 310 318 313 325 316 306 297 293 294 299 302 304 302 301 299 300 299 299 301 303 302 302 298 299 300 301 301 299 290 290 297 293 285 279 269 266 267
236 239 248 267 261 244 228 231 211 251 254 252 246 241 244 244 242 244 236 238 244 248 233 223 259 241 225 230 233 228 234 250 261 227 186 122 94 78 71 60 50 35 33 31 28 338 316 308 312 320 314 307 315 306 300 296 295 295 299 301 298 298 297 300 301 302 301 303 302 302 302 301 300 300 299 299 298 298 289 274 287 291 291 291 288 288
229 239 241 238 233 250 245 234 216 231 246 245 251 249 234 228 220 231 239 241 245 238 216 208 234 269 239 255 164 202 234 235 126 78 85 70 73 77 72 67 30 6 342 338 327 310 308 317 325 311 303 301 306 300 297 296 296 299 299 295 293 293 293 298 300 301 301 304 302 302 303 302 301 299 296 294 294 294 293 294 282 285 289 290 292 293